Regional Weather Roundup
Issued by NWS

Home | Current Version | Previous Version | Text Only | Print | Product List | Glossary Off
Versions: 1 2 3 4 5 6 7 8 9 10 11 12 13 14 15 16 17 18 19 20 21 22 23 24 25 26 27 28 29 30 31 32 33 34 35 36 37 38 39 40 41 42 43 44 45 46 47 48 49 50

063
ASUS43 KFSD 202202
RWRSD

WEATHER ROUNDUP FOR SOUTH DAKOTA
NATIONAL WEATHER SERVICE SIOUX FALLS SD
500 PM CDT WED SEP 20 2017

NOTE: "FAIR" INDICATES FEW OR NO CLOUDS BELOW 12,000 FEET WITH NO
SIGNIFICANT WEATHER AND/OR OBSTRUCTIONS TO VISIBILITY.


SDZ001>005-009-010-012>017-202300-
NORTHWEST AND NORTH CENTRAL SOUTH DAKOTA

CITY           SKY/WX    TMP DP  RH WIND       PRES   REMARKS
BUFFALO          N/A     71  23  16 SW18G29   29.63S
FAITH            N/A     72  25  17 SW15G24   29.72F
MOBRIDGE       MOSUNNY   74  37  26 SW12      29.72S
$$

SDZ012>016-024>037-041>051-057-063-072>074-202300-
SOUTHWEST AND SOUTH CENTRAL SOUTH DAKOTA

CITY           SKY/WX    TMP DP  RH WIND       PRES   REMARKS
RAPID CTY ARPT SUNNY     72  25  17 SW17G25   29.74F
PIERRE         SUNNY     76  24  14 SW16      29.74F
CUSTER         SUNNY     63  23  21 SW15G33   29.83R
ELLSWORTH AFB  SUNNY     73  25  17 SW13      29.73F
PHILIP         SUNNY     78  23  13 W17G26    29.73F
SPEARFISH      FAIR      68  25  19 SW23G39   29.74S
WINNER         FAIR      76  34  21 SW13G22   29.81S
$$

SDZ004>011-016>023-039-040-202300-
NORTHEAST SOUTH DAKOTA

CITY           SKY/WX    TMP DP  RH WIND       PRES   REMARKS
ABERDEEN       SUNNY     74  36  25 S12G23    29.77F
WATERTOWN      SUNNY     69  43  38 S10G17    29.82F
BROOKINGS      SUNNY     70  39  32 CALM      29.84F
SISSETON         N/A     72  39  30 S10       29.80S
$$

SDZ017-020-022-023-036>040-048>070-202300-
SOUTHEAST SOUTH DAKOTA

CITY           SKY/WX    TMP DP  RH WIND       PRES   REMARKS
SIOUX FALLS    SUNNY     72  48  42 VRB3      29.85F
HURON          SUNNY     73  40  30 S16       29.80S
CHAMBERLAIN    SUNNY     78  31  18 SW14      29.80S
MITCHELL       SUNNY     75  39  27 SW8       29.82F
YANKTON        SUNNY     73  46  38 S3        29.86S
$$

ABBREVIATIONS USED IN REMARKS
   TC - TEMPERATURE IN CELSIUS
  WCI - WIND CHILL INDEX
   HX - HEAT INDEX
  VSB - VISIBILITY





USA.gov is the U.S. government's official web portal to all federal, state and local government web resources and services.